Location: Aubrey
(33.1990°N, 85.1361°W)
Time: 12:03:08
(UTC+00:00)

Envisat - Visible Passes

Search period start: 18 September 2021 00:00
Search period end: 28 September 2021 00:00
Orbit: 764 x 766 km, 98.2° (Epoch: 17 September)

Date Brightness Start Highest point End Pass type
(mag) Time Alt. Az. Time Alt. Az. Time Alt. Az.
18 Sep 5.0 10:04:16 10° NE 10:08:41 29° E 10:13:03 10° SSE visible
19 Sep 6.1 09:29:45 10° ENE 09:31:34 12° E 09:33:23 10° ESE visible
20 Sep 3.8 10:29:07 10° NNE 10:34:06 55° E 10:39:03 10° S visible
21 Sep 5.4 09:53:10 10° NE 09:57:07 23° E 10:01:03 10° SSE visible
22 Sep 3.0 10:54:21 10° N 10:59:26 80° WNW 11:04:30 10° SSW visible
23 Sep 4.3 10:17:46 10° NNE 10:22:34 42° E 10:27:20 10° S visible
24 Sep 5.8 09:42:13 10° NE 09:45:32 17° E 09:48:49 10° SE visible
25 Sep 3.2 10:42:50 10° NNE 10:47:56 79° ESE 10:53:00 10° S visible
26 Sep 4.9 10:06:30 10° NE 10:11:01 32° E 10:15:31 10° SSE visible
27 Sep 6.0 09:31:38 10° ENE 09:33:55 13° E 09:36:13 10° ESE visible
